{"data":{"norad_id":54207,"intl_designator":"2022-141BC","name":"STARLINK-5262","alt_names":[],"object_type":"PAYLOAD","status":"ACTIVE","operator":null,"country":"US","launch_date":"2022-10-28","launch_site_code":"AFWTR","launch_vehicle":null,"mission":null,"orbit_class":"UNKNOWN","rcs_meters":null,"size_class":null,"mass_kg":null,"dimensions":null,"purposes":["comms"],"wikipedia_slug":null,"has_3d_model":false,"image_url":null,"decayed_at":null,"tle_current":{"epoch":"2026-05-24T23:59:37.648320Z","epoch_age_seconds":85456,"freshness":"FRESH","line1":"1 54207U 22141BC  26144.99974130  .00001302  00000+0  99897-4 0  9998","line2":"2 54207  53.2146  11.1584 0001320  90.2019 269.9124 15.08832066197524","mean_motion":15.08832066,"eccentricity":0.000132,"inclination_deg":53.2146,"raan_deg":11.1584,"arg_perigee_deg":90.2019,"mean_anomaly_deg":269.9124,"bstar":9.9897e-5,"rev_number":19752,"period_min":95.438056523913,"perigee_km":538.85447672183,"apogee_km":540.68080354682,"semimajor_km":6917.9046401343,"source":"CELESTRAK","updated_at":"2026-05-25T13:38:17.686903Z"}}}